Location: downtown San Diego
(32.7310°N, 117.1990°W)
Time: 17:33:59
(UTC-08:00)

CARTOSAT-1 - Pass Details

Date: 12 July 2018
Orbit: 616 x 620 km, 97.8° (Epoch: 15 December)

Event Time Altitude Azimuth Distance (km) Brightness Sun altitude
Exits shadow 22:49:27 50° 356° (N) 792 4.3 -27.8°
Drops below altitude 10° 22:52:41 10° 350° (N) 1,992 7.0 -28.2°
Sets 22:54:53 0° 350° (N) 2,902 8.0 -28.4°
